[[{"header":{"parameterUnit":"m.s-1","parameterCategory":2,"la1":30.2991,"la2":30.254,"lo1":-89.0895,"lo2":-89.0444,"dy":0.0017,"dx":0.0017,"nx":28,"ny":28,"refTime":"2023-09-25T21:00:00:Z","depth":"0","parameterNumber":2,"parameterNumberName":"U-component_of_CURRENTS"},"data":[0,0,0,0,0,0,0,0,0,0,0,0,0,0,0,0,0,0,0,0,0,0,0,0,0,0,0,0,0,0,0,0,0,0,0,0,0,0,0,0,0,0,0,0,0,0,0,0,0,0,0,0,0,0,0,0,0,0,0.2444,0.2445,0,0.2506,0.2507,0.2507,0.2511,0.2511,0.2511,0.251,0.2492,0.2492,0.2492,0,0,0,0,0,0,0,0,0,0,0,0,0,0.2325,0.2327,0.2444,0.2445,0.2446,0.2506,0.2507,0.2507,0.2512,0.2511,0.251,0.251,0.2492,0.2492,0.2492,0,0,0,0,0,0,0,0,0,0,0,0,0,0.2378,0.2327,0.2444,0.2457,0.2459,0.2506,0.2507,0.2507,0.2512,0.2511,0.251,0.251,0.2492,0.2492,0.2492,0.2507,0,0,0.2492,0.2492,0,0,0,0,0,0,0,0,0.2375,0.2382,0.2454,0.2456,0.2458,0.2502,0.2458,0.2504,0.2512,0.2489,0.251,0.2509,0.249,0.2491,0.2502,0.2506,0.2505,0.2492,0.2492,0.2492,0.2492,0,0,0,0,0,0,0,0.2372,0.238,0.2466,0.2455,0.2458,0.2459,0.2465,0.2467,0.249,0.2491,0.2492,0.2503,0.2491,0.2502,0.2501,0.2505,0.2492,0.2492,0.2492,0.2492,0.2525,0.2526,0,0,0,0,0,0,0.237,0.2377,0.2464,0.2468,0.2417,0.2462,0.2469,0.2487,0.2492,0.2493,0.2504,0.2503,0.2502,0.2501,0.25,0.2532,0.2492,0.2492,0.2492,0.2524,0.2525,0.2526,0,0,0,0,0,0,0.2368,0.2378,0.2462,0.2425,0.2436,0.2465,0.2485,0.2489,0.2503,0.2502,0.2501,0.2514,0.2502,0.25,0.2506,0.253,0.2492,0.2492,0.2523,0.2524,0.2526,0.2586,0,0,0,0,0,0,0.2364,0.2377,0.2387,0.2425,0.2438,0.2502,0.2486,0.2491,0.2512,0.2511,0.2511,0.2509,0.2501,0.2506,0.2506,0.253,0.2492,0.2522,0.2524,0.2525,0.2583,0.2589,0.2594,0,0,0,0,0,0.236,0.2384,0.2387,0.2398,0.2453,0.2504,0.2511,0.2526,0.2513,0.2532,0.2522,0.2509,0.2516,0.2507,0.2506,0.2531,0.2521,0.2523,0.2525,0.258,0.2588,0.2594,0,0,0,0,0,0,0.233,0.2388,0.2392,0.243,0.2468,0.2506,0.2526,0.2531,0.254,0.2532,0.2519,0.2517,0.2536,0.2522,0.2511,0.2544,0.2517,0.2519,0.2559,0.2566,0.2572,0.2571,0.2492,0,0,0,0,0,0.2331,0.2371,0.2415,0.2446,0.2466,0.2494,0.2513,0.2526,0.2542,0.2546,0.2544,0.2539,0.2546,0.2544,0.255,0.2564,0.2578,0.2579,0.2585,0.259,0.2589,0.264,0.2651,0.2533,0.2533,0.2533,0,0,0.2329,0.2365,0.2387,0.2443,0.2471,0.251,0.2504,0.2543,0.2568,0.2541,0.2566,0.2564,0.2555,0.2577,0.2584,0.2566,0.2635,0.2592,0.2597,0.2593,0.2643,0.2655,0.2666,0.2534,0.2534,0.2533,0,0,0.2356,0.2377,0.2423,0.2455,0.2505,0.2525,0.2537,0.2578,0.259,0.2617,0.2603,0.2613,0.2621,0.2625,0.2625,0.2664,0.267,0.2664,0.2688,0.2739,0.2749,0.2759,0.2811,0.2824,0.2661,0.2661,0.2661,0,0.2351,0.2409,0.2442,0.2487,0.2509,0.2532,0.257,0.2595,0.2629,0.2625,0.2631,0.2644,0.2648,0.2661,0.2683,0.268,0.2707,0.2664,0.2748,0.2758,0.2766,0.2817,0.2831,0.2664,0.2664,0.2664,0.2663,0,0.2413,0.2452,0.248,0.2543,0.2568,0.2609,0.2641,0.2658,0.2667,0.2677,0.2697,0.2712,0.2709,0.2726,0.272,0.2772,0.2774,0.2758,0.2734,0.2782,0.2833,0.2846,0.2669,0.2668,0.2667,0.2666,0,0,0.2418,0.251,0.2516,0.2539,0.2597,0.262,0.2655,0.2683,0.2685,0.2722,0.2727,0.2767,0.2759,0.2759,0.276,0.2809,0.2913,0.2813,0.2814,0.287,0.3035,0.2874,0.2874,0.2916,0.2919,0.292,0.3054,0,0.2456,0.2544,0.2573,0.2625,0.2664,0.2673,0.2697,0.2712,0.2725,0.2735,0.275,0.2763,0.2777,0.2778,0.2834,0.2886,0.2948,0.2878,0.2974,0.2977,0.2832,0.2883,0.267,0.2756,0.3067,0.3069,0.3071,0,0.25,0.2552,0.2619,0.2655,0.2668,0.2687,0.2692,0.2719,0.2728,0.2734,0.2743,0.2753,0.2813,0.2823,0.2957,0.2913,0.2983,0.3034,0.304,0.2872,0.2839,0.2753,0.2768,0.2604,0.3091,0.309,0.3088,0,0.2486,0.2567,0.2615,0.2634,0.2687,0.2685,0.2697,0.2704,0.2712,0.2724,0.2728,0.2783,0.2817,0.2916,0.3012,0.2999,0.3162,0.3152,0.3078,0.3069,0.2893,0.2862,0.2757,0.3263,0.3262,0.3262,0.3261,0,0.251,0.254,0.2606,0.263,0.2647,0.2672,0.2673,0.2683,0.2694,0.2699,0.2722,0.2746,0.2847,0.2933,0.3028,0.3083,0.3179,0.3089,0.3089,0.2907,0.2876,0.2726,0.2702,0.3267,0.3266,0.3265,0.3264,0,0.2491,0.2545,0.2591,0.2641,0.2646,0.265,0.2659,0.2659,0.2673,0.2684,0.269,0.2745,0.2842,0.2937,0.3095,0.3079,0.3037,0.3166,0.2936,0.2901,0.2604,0.2592,0.2486,0.2434,0.3087,0.3084,0.3081,0,0.2499,0.2529,0.2586,0.26,0.262,0.2627,0.2628,0.264,0.2643,0.2685,0.2693,0.2766,0.2822,0.2948,0.2934,0.302,0.2959,0.2828,0.2741,0.2547,0.2539,0.2491,0.2455,0.2568,0.2562,0.2556,0.2552,0,0.2507,0.2526,0.2567,0.26,0.2604,0.2601,0.2605,0.2599,0.2617,0.2629,0.2666,0.2716,0.2775,0.2719,0.2747,0.2757,0.2592,0.2711,0.2583,0.2168,0.2042,0.2003,0.2539,0.2502,0.2507,0.2511,0.2514,0.2516,0.2507,0.2531,0.2584,0.2595,0.2602,0.2573,0.2528,0.2545,0.2534,0.2517,0.2603,0.2608,0.2505,0.2491,0.2467,0.2131,0.2299,0.1992,0.2021,0.201,0.1848,0.2252,0.215,0.2153,0.2155,0.2157,0.2159,0,0.2507,0.2542,0.2573,0.2582,0.2555,0.2555,0.2511,0.2442,0.2402,0.243,0.244,0.2277,0.2114,0.1989,0.164,0.1463,0.1438,0.1359,0.1254,0.128,0.1682,0.1536,0.1203,0.1203,0.1204,0.1204,0.1204,0.1204,0.2518,0.2549,0.2558,0.2527,0.251,0.2404,0.2342,0.2264,0.2238,0.2104,0.2007,0.1994,0.1745,0.1292,0.0922,0.0877,0.0821,0.0714,0.0833,0.1076,0.1137,0.1196,0.1047,0.0617,0.0617,0.0321,0.0319,0.0317]},{"header":{"parameterUnit":"m.s-1","parameterCategory":2,"la1":30.2991,"la2":30.254,"lo1":-89.0895,"lo2":-89.0444,"dy":0.0017,"dx":0.0017,"nx":28,"ny":28,"refTime":"2023-09-25T21:00:00:Z","depth":"0","parameterNumber":3,"parameterNumberName":"V-component_of_CURRENTS"},"data":[0,0,0,0,0,0,0,0,0,0,0,0,0,0,0,0,0,0,0,0,0,0,0,0,0,0,0,0,0,0,0,0,0,0,0,0,0,0,0,0,0,0,0,0,0,0,0,0,0,0,0,0,0,0,0,0,0,0,-0.0174,-0.0175,0,-0.0264,-0.0265,-0.0267,-0.03,-0.03,-0.0299,-0.0299,-0.0377,-0.0379,-0.0382,0,0,0,0,0,0,0,0,0,0,0,0,0,-0.0075,-0.0076,-0.0174,-0.0175,-0.0176,-0.0264,-0.0266,-0.0267,-0.03,-0.03,-0.0299,-0.0299,-0.0376,-0.0379,-0.0382,0,0,0,0,0,0,0,0,0,0,0,0,0,-0.0138,-0.0077,-0.0174,-0.0202,-0.0206,-0.0264,-0.0266,-0.0267,-0.03,-0.03,-0.0299,-0.0299,-0.0375,-0.0379,-0.0382,-0.0416,0,0,-0.0393,-0.0395,0,0,0,0,0,0,0,0,-0.0134,-0.0141,-0.0197,-0.02,-0.0204,-0.0269,-0.0259,-0.0316,-0.03,-0.0265,-0.0299,-0.0298,-0.034,-0.0346,-0.0366,-0.042,-0.0423,-0.0394,-0.0396,-0.0397,-0.0399,0,0,0,0,0,0,0,-0.013,-0.0138,-0.0211,-0.0198,-0.0203,-0.0226,-0.0234,-0.0271,-0.0305,-0.0268,-0.0271,-0.028,-0.0341,-0.0362,-0.0368,-0.0425,-0.0394,-0.0397,-0.0399,-0.0401,-0.043,-0.0429,0,0,0,0,0,0,-0.0115,-0.0134,-0.0208,-0.0213,-0.0166,-0.0228,-0.0237,-0.025,-0.0305,-0.0313,-0.028,-0.0281,-0.0356,-0.0364,-0.0371,-0.0365,-0.0397,-0.0401,-0.0403,-0.0431,-0.043,-0.0428,0,0,0,0,0,0,-0.0113,-0.0121,-0.0204,-0.0174,-0.0186,-0.023,-0.0244,-0.0252,-0.0274,-0.0314,-0.0321,-0.0293,-0.0356,-0.0366,-0.0392,-0.0369,-0.0403,-0.0406,-0.0433,-0.0431,-0.0429,-0.0384,0,0,0,0,0,0,-0.011,-0.012,-0.0126,-0.0174,-0.0188,-0.0237,-0.0245,-0.0254,-0.0279,-0.0281,-0.0328,-0.0335,-0.0357,-0.0387,-0.0396,-0.0375,-0.0409,-0.0435,-0.0432,-0.043,-0.0387,-0.038,-0.0375,0,0,0,0,0,-0.0106,-0.0116,-0.0126,-0.0135,-0.0194,-0.0237,-0.0247,-0.0276,-0.028,-0.0293,-0.0314,-0.0333,-0.0375,-0.039,-0.0401,-0.038,-0.0436,-0.0433,-0.043,-0.039,-0.0382,-0.0375,0,0,0,0,0,0,-0.0081,-0.0122,-0.0133,-0.0156,-0.0192,-0.0242,-0.0255,-0.0277,-0.0307,-0.0303,-0.0338,-0.0346,-0.0352,-0.0374,-0.0389,-0.0375,-0.04,-0.0399,-0.0366,-0.0359,-0.0353,-0.0327,-0.0412,0,0,0,0,0,-0.0077,-0.0091,-0.0137,-0.0155,-0.0169,-0.0212,-0.0233,-0.0254,-0.0285,-0.0298,-0.0328,-0.0343,-0.0349,-0.0361,-0.0377,-0.0391,-0.0358,-0.0375,-0.0369,-0.0364,-0.0347,-0.026,-0.0243,-0.0418,-0.0418,-0.0418,0,0,-0.0072,-0.0096,-0.0104,-0.015,-0.0177,-0.0201,-0.0224,-0.0252,-0.0263,-0.0302,-0.0321,-0.0332,-0.0347,-0.0348,-0.0351,-0.0365,-0.0298,-0.036,-0.0355,-0.0341,-0.0254,-0.0237,-0.0222,-0.0416,-0.0416,-0.0416,0,0,-0.0075,-0.0089,-0.0106,-0.0131,-0.0169,-0.0191,-0.0198,-0.0244,-0.0253,-0.028,-0.0287,-0.0278,-0.0323,-0.0308,-0.0309,-0.0279,-0.0267,-0.0286,-0.0241,-0.0157,-0.0141,-0.0127,-0.0071,-0.0052,-0.0284,-0.0284,-0.0284,0,-0.0068,-0.0095,-0.0118,-0.0141,-0.0153,-0.0183,-0.02,-0.0218,-0.0264,-0.0253,-0.0276,-0.0269,-0.0292,-0.0254,-0.0242,-0.0263,-0.0223,-0.0273,-0.0147,-0.0133,-0.0119,-0.0064,-0.0044,-0.0281,-0.0282,-0.0282,-0.0282,0,-0.0086,-0.0106,-0.0115,-0.0146,-0.016,-0.0178,-0.0198,-0.0203,-0.0213,-0.022,-0.0191,-0.0207,-0.0191,-0.0195,-0.0219,-0.0132,-0.0137,-0.0148,-0.0165,-0.0098,-0.0046,-0.0025,-0.0278,-0.0279,-0.0279,-0.028,0,0,-0.0075,-0.012,-0.0123,-0.0129,-0.0159,-0.017,-0.0166,-0.0164,-0.0132,-0.0155,-0.0104,-0.0112,-0.0099,-0.0096,-0.0105,-0.0045,0.0071,-0.0058,-0.0055,0.0,0.025,0.0217,0.0235,0.0086,0.009,0.0094,0.0245,0,-0.0084,-0.0119,-0.0134,-0.0146,-0.0159,-0.016,-0.0145,-0.0133,-0.0119,-0.0074,-0.0052,-0.0017,-0.0067,-0.0043,0.0012,0.0064,0.0128,0.003,0.0176,0.018,0.0145,0.026,0.0275,0.041,0.0265,0.0269,0.0271,0,-0.0097,-0.0115,-0.0134,-0.0129,-0.0129,-0.0129,-0.0076,-0.0068,-0.0005,0.0015,0.0065,0.0081,0.016,0.0113,0.0248,0.019,0.0227,0.026,0.0267,0.0238,0.0186,0.0322,0.0452,0.0419,0.0302,0.03,0.0297,0,-0.0078,-0.0108,-0.0115,-0.012,-0.0121,-0.01,-0.0086,-0.0034,0.0011,0.0088,0.0147,0.0217,0.0283,0.0346,0.0382,0.0339,0.0538,0.0489,0.0494,0.0491,0.0535,0.0528,0.0656,0.0606,0.0606,0.0606,0.0605,0,-0.008,-0.0082,-0.0103,-0.0106,-0.0068,-0.0076,-0.001,0.0019,0.0096,0.0186,0.0202,0.0298,0.0352,0.0448,0.0459,0.0548,0.0605,0.054,0.0549,0.0547,0.054,0.0534,0.0496,0.0611,0.061,0.0609,0.0608,0,-0.0057,-0.0084,-0.0079,-0.0076,-0.0063,-0.003,0.0033,0.0094,0.0149,0.0275,0.0311,0.0412,0.0536,0.0572,0.0696,0.0663,0.0735,0.0741,0.0712,0.0715,0.0654,0.0618,0.0765,0.0787,0.0791,0.0791,0.0791,0,-0.0048,-0.0051,-0.0042,-0.0019,-0.0015,0.0029,0.008,0.0125,0.02,0.035,0.0433,0.0568,0.0687,0.0828,0.0821,0.0865,0.0808,0.0853,0.0765,0.0692,0.066,0.0626,0.0631,0.0845,0.0845,0.0846,0.0846,0,-0.0008,-0.0007,0.0002,0.004,0.0082,0.0137,0.0206,0.0273,0.0359,0.0474,0.0641,0.0744,0.0864,0.0943,0.0954,0.0941,0.0836,0.0863,0.0834,0.0762,0.0697,0.0707,0.0671,0.0852,0.0851,0.0851,0.0851,0.085,0.0046,0.0065,0.0077,0.0121,0.0168,0.0248,0.0314,0.0406,0.0541,0.0719,0.0797,0.0975,0.1016,0.1054,0.1019,0.0916,0.0907,0.0861,0.084,0.0825,0.0802,0.075,0.0895,0.0895,0.0895,0.0894,0.0894,0,0.0119,0.0128,0.0163,0.0216,0.0284,0.0293,0.0409,0.0488,0.0656,0.083,0.0984,0.1136,0.1167,0.1117,0.0996,0.0913,0.0885,0.0853,0.083,0.085,0.0866,0.0818,0.0897,0.0897,0.0897,0.0897,0.0897,0.0897,0.0162,0.0201,0.0205,0.0312,0.0359,0.0455,0.0526,0.0637,0.0768,0.0973,0.1114,0.1222,0.1188,0.1014,0.0886,0.0857,0.0834,0.0808,0.0803,0.0795,0.0794,0.0792,0.074,0.0803,0.0802,0.0813,0.0813,0.0813]}],[{"header":{"parameterUnit":"m.s-1","parameterCategory":2,"la1":30.2991,"la2":30.254,"lo1":-89.0895,"lo2":-89.0444,"dy":0.0017,"dx":0.0017,"nx":28,"ny":28,"refTime":"2023-09-25T21:00:00:Z","depth":"2","parameterNumber":2,"parameterNumberName":"U-component_of_CURRENTS"},"data":[0,0,0,0,0,0,0,0,0,0,0,0,0,0,0,0,0,0,0,0,0,0,0,0,0,0,0,0,0,0,0,0,0,0,0,0,0,0,0,0,0,0,0,0,0,0,0,0,0,0,0,0,0,0,0,0,0,0,0.1484,0.1484,0,0.1504,0.1504,0.1504,0.149,0.149,0.149,0.149,0.1545,0.1547,0.1548,0,0,0,0,0,0,0,0,0,0,0,0,0,0.1464,0.1463,0.1484,0.1485,0.1485,0.1504,0.1504,0.1504,0.1491,0.149,0.149,0.149,0.1544,0.1546,0.1548,0,0,0,0,0,0,0,0,0,0,0,0,0,0.1473,0.1463,0.1484,0.1484,0.1485,0.1504,0.1504,0.1504,0.1491,0.149,0.149,0.149,0.1544,0.1546,0.1549,0.157,0,0,0.1556,0.1557,0,0,0,0,0,0,0,0,0.1472,0.1473,0.1483,0.1484,0.1485,0.1498,0.1517,0.1529,0.1491,0.1484,0.149,0.149,0.1536,0.1539,0.1536,0.1572,0.1575,0.1556,0.1558,0.1559,0.156,0,0,0,0,0,0,0,0.1471,0.1472,0.1487,0.1484,0.1485,0.1494,0.1494,0.1519,0.1508,0.1484,0.1484,0.1494,0.1536,0.1534,0.1538,0.1575,0.1556,0.1558,0.156,0.1561,0.1742,0.1745,0,0,0,0,0,0,0.1477,0.1471,0.1487,0.1488,0.1483,0.1495,0.1495,0.1491,0.1507,0.151,0.1494,0.1493,0.153,0.1535,0.154,0.1636,0.1559,0.1561,0.1563,0.1738,0.1742,0.1746,0,0,0,0,0,0,0.1476,0.1477,0.1486,0.1485,0.1487,0.1496,0.1491,0.1491,0.1513,0.1515,0.1518,0.1518,0.153,0.1536,0.1599,0.1636,0.1562,0.1565,0.1734,0.174,0.1744,0.1785,0,0,0,0,0,0,0.1475,0.1476,0.1488,0.1485,0.1487,0.151,0.1492,0.1492,0.152,0.1519,0.1537,0.154,0.153,0.1595,0.1601,0.1638,0.1566,0.173,0.1737,0.1743,0.1779,0.1791,0.18,0,0,0,0,0,0.1474,0.1496,0.1488,0.1491,0.1498,0.1511,0.1513,0.1515,0.1522,0.1533,0.1563,0.1541,0.1639,0.16,0.1606,0.1644,0.1727,0.1735,0.1742,0.1775,0.1788,0.18,0,0,0,0,0,0,0.1498,0.1496,0.1488,0.1509,0.1514,0.1511,0.1536,0.1536,0.1566,0.158,0.1578,0.1584,0.1653,0.1657,0.1614,0.1722,0.1682,0.1691,0.1705,0.1718,0.1728,0.173,0.1569,0,0,0,0,0,0.1507,0.1519,0.1515,0.1534,0.1543,0.1544,0.1557,0.1556,0.1578,0.1591,0.1604,0.1641,0.1686,0.1708,0.174,0.1796,0.1825,0.1831,0.1842,0.185,0.1861,0.1941,0.1958,0.177,0.177,0.177,0,0,0.1522,0.1525,0.1533,0.1541,0.1549,0.1562,0.1551,0.158,0.1601,0.1596,0.1647,0.1678,0.1714,0.1774,0.1806,0.1782,0.1926,0.186,0.1866,0.1873,0.195,0.1968,0.1984,0.1775,0.1775,0.1774,0,0,0.1555,0.1562,0.158,0.1585,0.1604,0.1604,0.1619,0.163,0.1649,0.1698,0.1714,0.1778,0.1824,0.186,0.1886,0.1983,0.1981,0.1994,0.204,0.2117,0.2133,0.2146,0.2222,0.2242,0.1995,0.1995,0.1995,0,0.1564,0.1586,0.159,0.1605,0.1619,0.1626,0.1646,0.1668,0.1698,0.1727,0.1726,0.1837,0.1868,0.1955,0.1993,0.2004,0.2045,0.1978,0.2128,0.2142,0.2155,0.2229,0.2251,0.1998,0.1997,0.1997,0.1997,0,0.1605,0.162,0.164,0.1651,0.1668,0.1693,0.1712,0.1744,0.1773,0.1789,0.1883,0.1933,0.1996,0.2025,0.204,0.2155,0.2153,0.213,0.2084,0.2176,0.2249,0.2271,0.2002,0.2001,0.2,0.1999,0,0,0.1613,0.1654,0.1659,0.1668,0.1695,0.1708,0.176,0.1802,0.1844,0.1892,0.1956,0.2057,0.2082,0.2118,0.215,0.2223,0.2365,0.2221,0.2224,0.2276,0.2543,0.2258,0.2254,0.2359,0.2363,0.2366,0.2561,0,0.1636,0.1673,0.169,0.1724,0.1742,0.1763,0.1805,0.1847,0.1893,0.1955,0.2031,0.2107,0.2117,0.2164,0.2242,0.2329,0.2422,0.2315,0.2465,0.247,0.2186,0.2269,0.2078,0.2209,0.2582,0.2586,0.2588,0,0.1661,0.1685,0.1728,0.1756,0.1767,0.1794,0.186,0.1896,0.1981,0.2022,0.2103,0.2149,0.228,0.2271,0.247,0.2399,0.2492,0.2554,0.2562,0.2291,0.2222,0.2178,0.2234,0.2624,0.2621,0.2619,0.2616,0,0.1665,0.1701,0.1741,0.1751,0.1794,0.183,0.1858,0.1928,0.1975,0.2077,0.2126,0.2247,0.2331,0.2455,0.2556,0.2544,0.2748,0.2744,0.2585,0.2568,0.243,0.2389,0.2911,0.2911,0.291,0.291,0.2909,0,0.1671,0.1695,0.1751,0.1773,0.1826,0.1845,0.1914,0.1957,0.2035,0.2099,0.217,0.2245,0.2385,0.2488,0.2589,0.2614,0.2779,0.2607,0.2594,0.2436,0.2395,0.2765,0.2745,0.2917,0.2915,0.2914,0.2913,0,0.1662,0.1698,0.1746,0.1811,0.1834,0.1876,0.1943,0.1986,0.2056,0.2146,0.2186,0.2292,0.2385,0.2476,0.2668,0.2626,0.2702,0.2683,0.2462,0.2412,0.2486,0.2468,0.2555,0.2547,0.2539,0.2533,0.2528,0,0.1662,0.1693,0.178,0.1821,0.1857,0.1916,0.1956,0.201,0.2051,0.2168,0.221,0.2304,0.2305,0.2393,0.2374,0.2421,0.2571,0.2246,0.2156,0.2469,0.245,0.2442,0.2433,0.2053,0.2045,0.2038,0.2032,0,0.1676,0.1721,0.1768,0.185,0.1905,0.1941,0.1996,0.2005,0.2069,0.2116,0.2175,0.2172,0.218,0.2048,0.1993,0.202,0.2192,0.209,0.2548,0.2086,0.1986,0.1968,0.198,0.1969,0.1976,0.198,0.1984,0.1986,0.1705,0.1737,0.1814,0.1878,0.1937,0.1944,0.1929,0.1959,0.1966,0.1946,0.2039,0.1925,0.1872,0.1617,0.1588,0.1578,0.1757,0.1715,0.1744,0.1779,0.1598,0.148,0.1342,0.1344,0.1346,0.1348,0.135,0,0.1724,0.1771,0.1832,0.1896,0.1924,0.197,0.1947,0.1872,0.1825,0.175,0.1735,0.1443,0.1265,0.1254,0.1121,0.1074,0.1164,0.1042,0.1184,0.1243,0.1297,0.1099,0.0708,0.0706,0.0704,0.0702,0,0,0.1748,0.1793,0.1807,0.1862,0.1913,0.1863,0.1818,0.1708,0.1586,0.1362,0.122,0.1186,0.1149,0.0887,0.0857,0.0766,0.1009,0.0726,0.124,0.1465,0.1517,0.1675,0.1431,0,0,0,0,0]},{"header":{"parameterUnit":"m.s-1","parameterCategory":2,"la1":30.2991,"la2":30.254,"lo1":-89.0895,"lo2":-89.0444,"dy":0.0017,"dx":0.0017,"nx":28,"ny":28,"refTime":"2023-09-25T21:00:00:Z","depth":"2","parameterNumber":3,"parameterNumberName":"V-component_of_CURRENTS"},"data":[0,0,0,0,0,0,0,0,0,0,0,0,0,0,0,0,0,0,0,0,0,0,0,0,0,0,0,0,0,0,0,0,0,0,0,0,0,0,0,0,0,0,0,0,0,0,0,0,0,0,0,0,0,0,0,0,0,0,-0.0108,-0.0108,0,-0.015,-0.015,-0.0151,-0.0189,-0.019,-0.019,-0.0191,-0.027,-0.0272,-0.0273,0,0,0,0,0,0,0,0,0,0,0,0,0,-0.0056,-0.0056,-0.0108,-0.0108,-0.0109,-0.015,-0.015,-0.0151,-0.0189,-0.019,-0.019,-0.0191,-0.027,-0.0272,-0.0274,0,0,0,0,0,0,0,0,0,0,0,0,0,-0.0086,-0.0057,-0.0108,-0.0133,-0.0135,-0.015,-0.015,-0.0151,-0.0189,-0.019,-0.019,-0.0191,-0.0269,-0.0271,-0.0274,-0.0276,0,0,-0.0282,-0.0283,0,0,0,0,0,0,0,0,-0.0084,-0.0088,-0.0129,-0.0131,-0.0134,-0.0165,-0.0161,-0.0195,-0.0189,-0.0169,-0.0191,-0.0191,-0.0238,-0.0243,-0.0249,-0.028,-0.0283,-0.0282,-0.0283,-0.0285,-0.0285,0,0,0,0,0,0,0,-0.0082,-0.0086,-0.0125,-0.0129,-0.0132,-0.014,-0.0145,-0.0167,-0.02,-0.0171,-0.0174,-0.0178,-0.024,-0.0246,-0.0251,-0.0284,-0.0282,-0.0284,-0.0286,-0.0287,-0.0343,-0.0343,0,0,0,0,0,0,-0.0076,-0.0084,-0.0123,-0.0126,-0.011,-0.014,-0.0146,-0.0154,-0.0199,-0.0206,-0.0177,-0.0179,-0.0242,-0.0248,-0.0254,-0.0281,-0.0285,-0.0287,-0.0288,-0.0343,-0.0343,-0.0343,0,0,0,0,0,0,-0.0075,-0.008,-0.0122,-0.0106,-0.0112,-0.0141,-0.015,-0.0155,-0.0175,-0.0203,-0.0211,-0.0193,-0.0243,-0.0251,-0.029,-0.0283,-0.0288,-0.029,-0.0343,-0.0343,-0.0343,-0.032,0,0,0,0,0,0,-0.0073,-0.0079,-0.0086,-0.0105,-0.0112,-0.0136,-0.0149,-0.0155,-0.0176,-0.018,-0.022,-0.0227,-0.0244,-0.0286,-0.0293,-0.0287,-0.0292,-0.0343,-0.0343,-0.0343,-0.0321,-0.032,-0.0318,0,0,0,0,0,-0.0071,-0.0081,-0.0086,-0.0091,-0.012,-0.0136,-0.014,-0.0163,-0.0176,-0.0184,-0.0217,-0.0226,-0.029,-0.0289,-0.0297,-0.0291,-0.0343,-0.0343,-0.0343,-0.0322,-0.032,-0.0318,0,0,0,0,0,0,-0.0068,-0.0086,-0.0092,-0.0108,-0.0122,-0.0143,-0.0153,-0.0168,-0.0199,-0.0208,-0.0236,-0.0246,-0.0272,-0.0289,-0.0287,-0.0306,-0.0313,-0.0315,-0.0295,-0.0293,-0.0292,-0.0268,-0.0294,0,0,0,0,0,-0.0067,-0.0078,-0.0094,-0.0107,-0.0113,-0.0134,-0.0145,-0.016,-0.0187,-0.0201,-0.0231,-0.0258,-0.0274,-0.0292,-0.0311,-0.0331,-0.0304,-0.0329,-0.0327,-0.0326,-0.0311,-0.0287,-0.0281,-0.0343,-0.0343,-0.0343,0,0,-0.0069,-0.0081,-0.0088,-0.0107,-0.012,-0.0121,-0.0143,-0.0162,-0.0164,-0.0205,-0.023,-0.0258,-0.0279,-0.0297,-0.0309,-0.0313,-0.0288,-0.0326,-0.0324,-0.031,-0.0286,-0.0279,-0.0274,-0.0343,-0.0343,-0.0343,0,0,-0.0074,-0.0089,-0.0095,-0.0102,-0.012,-0.0125,-0.0131,-0.0157,-0.0171,-0.02,-0.022,-0.0242,-0.0286,-0.0287,-0.0294,-0.0295,-0.028,-0.0309,-0.0286,-0.0262,-0.0256,-0.0251,-0.0176,-0.0165,-0.031,-0.031,-0.031,0,-0.0071,-0.0084,-0.01,-0.0103,-0.0104,-0.0124,-0.0122,-0.0133,-0.0171,-0.0176,-0.0207,-0.0244,-0.0269,-0.0263,-0.027,-0.0288,-0.0263,-0.0292,-0.0258,-0.0253,-0.0248,-0.0173,-0.016,-0.0309,-0.0309,-0.0309,-0.0309,0,-0.0077,-0.0084,-0.0089,-0.0092,-0.0093,-0.0099,-0.0105,-0.0116,-0.0139,-0.015,-0.0168,-0.0205,-0.0224,-0.0234,-0.026,-0.0236,-0.0223,-0.0257,-0.0259,-0.024,-0.0162,-0.0149,-0.0307,-0.0307,-0.0308,-0.0308,0,0,-0.0072,-0.0088,-0.0088,-0.0084,-0.0087,-0.0087,-0.008,-0.0077,-0.0072,-0.0109,-0.0101,-0.0137,-0.0163,-0.0172,-0.02,-0.0187,-0.0128,-0.0214,-0.0213,-0.013,-0.0039,-0.0038,-0.0024,-0.0169,-0.0167,-0.0166,0.0014,0,-0.0067,-0.0069,-0.0074,-0.0063,-0.006,-0.006,-0.0049,-0.0048,-0.006,-0.0059,-0.0077,-0.0094,-0.0136,-0.0158,-0.0146,-0.0137,-0.0099,-0.017,-0.0077,-0.0073,-0.0069,-0.0012,-0.0038,0.0117,0.0026,0.0029,0.003,0,-0.0068,-0.0066,-0.0062,-0.0046,-0.0043,-0.0041,-0.0018,-0.0015,-0.0005,-0.0017,-0.0025,-0.0045,-0.0024,-0.0081,-0.0014,-0.0064,-0.0046,-0.0033,-0.0027,-0.0025,-0.005,0.0075,0.0144,0.0052,0.005,0.0048,0.0047,0,-0.0058,-0.0052,-0.0048,-0.0045,-0.0033,-0.0031,-0.0025,-0.0014,-0.0001,0.0,0.0013,0.0025,0.0037,0.0053,0.0084,0.0026,0.0178,0.0103,0.0142,0.0145,0.0143,0.0142,0.0162,0.0162,0.0161,0.0161,0.016,0,-0.0047,-0.004,-0.0052,-0.005,-0.0033,-0.0034,-0.0019,-0.0011,0.0007,0.0051,0.0021,0.008,0.0061,0.0138,0.0143,0.0217,0.0236,0.018,0.0189,0.0153,0.015,0.0092,0.0081,0.0168,0.0166,0.0165,0.0164,0,-0.0033,-0.0045,-0.0035,-0.0033,-0.0036,-0.0028,-0.0013,0.0011,0.0012,0.0076,0.0079,0.0141,0.0247,0.0276,0.0346,0.0307,0.0362,0.0382,0.0369,0.0371,0.0301,0.0289,0.0432,0.0434,0.0435,0.0436,0.0437,0,-0.0025,-0.0028,-0.0025,-0.0016,-0.0021,-0.0016,0.0001,0.0006,0.0055,0.0142,0.0205,0.0299,0.0436,0.0558,0.0498,0.0545,0.05,0.0498,0.0356,0.0333,0.0328,0.0314,0.0301,0.0393,0.0393,0.0393,0.0394,0,0.0001,-0.0008,0.0011,0.0018,0.0028,0.0053,0.0083,0.0152,0.02,0.0295,0.049,0.0602,0.0655,0.0693,0.0663,0.0648,0.0474,0.0503,0.0516,0.0302,0.0302,0.0294,0.0282,0.0397,0.0397,0.0396,0.0396,0.0396,0.003,0.0049,0.0059,0.0076,0.0087,0.0156,0.0217,0.0315,0.0463,0.064,0.0736,0.0866,0.0774,0.0751,0.0703,0.0559,0.0556,0.0466,0.0462,0.0459,0.0396,0.0394,0.05,0.05,0.05,0.05,0.0501,0,0.0085,0.0094,0.0115,0.0145,0.018,0.0156,0.0294,0.0399,0.0633,0.0773,0.0961,0.0912,0.0923,0.0792,0.0581,0.0487,0.0436,0.0444,0.0388,0.0387,0.0386,0.0315,0.04,0.04,0.0399,0.0399,0,0,0.0118,0.016,0.0171,0.023,0.0233,0.0312,0.0412,0.0585,0.0714,0.0934,0.0973,0.1074,0.0911,0.0739,0.0622,0.0501,0.0455,0.0469,0.056,0.0508,0.0507,0.0412,0.0304,0,0,0,0,0]}],[{"header":{"parameterUnit":"m.s-1","parameterCategory":2,"la1":30.2991,"la2":30.254,"lo1":-89.0895,"lo2":-89.0444,"dy":0.0017,"dx":0.0017,"nx":28,"ny":28,"refTime":"2023-09-25T21:00:00:Z","depth":"4","parameterNumber":2,"parameterNumberName":"U-component_of_CURRENTS"},"data":[0,0,0,0,0,0,0,0,0,0,0,0,0,0,0,0,0,0,0,0,0,0,0,0,0,0,0,0,0,0,0,0,0,0,0,0,0,0,0,0,0,0,0,0,0,0,0,0,0,0,0,0,0,0,0,0,0,0,0.0231,0.0231,0,0.018,0.0179,0.0179,0.0171,0.0171,0.0172,0.0172,0.0148,0.0147,0.0146,0,0,0,0,0,0,0,0,0,0,0,0,0,0.0353,0.035,0.0231,0.0231,0.023,0.018,0.0179,0.0179,0.0171,0.0171,0.0172,0.0172,0.0149,0.0147,0.0146,0,0,0,0,0,0,0,0,0,0,0,0,0,0.03,0.0349,0.0231,0.022,0.0219,0.018,0.0179,0.0178,0.017,0.0171,0.0172,0.0173,0.0149,0.0147,0.0146,0.0121,0,0,0.0141,0.014,0,0,0,0,0,0,0,0,0.0303,0.0295,0.0223,0.0221,0.0219,0.0183,0.0213,0.0161,0.017,0.0188,0.0172,0.0173,0.0162,0.0159,0.0147,0.012,0.0119,0.0141,0.014,0.0139,0.0139,0,0,0,0,0,0,0,0.0307,0.0298,0.0211,0.0222,0.022,0.0228,0.0221,0.0203,0.0172,0.0187,0.0186,0.0181,0.0161,0.0149,0.0147,0.0119,0.0141,0.0139,0.0138,0.0138,0.0207,0.021,0,0,0,0,0,0,0.0311,0.0301,0.0212,0.0209,0.0264,0.0225,0.0218,0.0193,0.0172,0.0169,0.018,0.0181,0.0151,0.0149,0.0146,0.0203,0.0139,0.0138,0.0137,0.0205,0.0208,0.0211,0,0,0,0,0,0,0.0313,0.0302,0.0214,0.0256,0.0245,0.0222,0.0196,0.0192,0.0188,0.0166,0.0164,0.0182,0.0152,0.0148,0.0135,0.0199,0.0137,0.0135,0.0201,0.0206,0.021,0.026,0,0,0,0,0,0,0.0316,0.0303,0.0292,0.0255,0.0243,0.019,0.0195,0.0191,0.0184,0.0184,0.0166,0.0164,0.0152,0.0137,0.0133,0.0195,0.0134,0.0198,0.0203,0.0208,0.0255,0.0266,0.0275,0,0,0,0,0,0.0321,0.0289,0.0291,0.0281,0.0225,0.019,0.0184,0.0171,0.0183,0.0173,0.0168,0.0165,0.0171,0.0135,0.0131,0.0194,0.0195,0.0202,0.0208,0.0251,0.0264,0.0275,0,0,0,0,0,0,0.0335,0.0284,0.0286,0.0241,0.0223,0.0189,0.0174,0.0176,0.0163,0.0169,0.0159,0.0155,0.0187,0.0176,0.0138,0.0239,0.0201,0.0206,0.0235,0.0247,0.0257,0.0276,0.0133,0,0,0,0,0,0.0334,0.0295,0.0265,0.0232,0.0221,0.0205,0.0192,0.0188,0.017,0.0166,0.0163,0.0179,0.0208,0.021,0.0222,0.0238,0.0238,0.0294,0.0304,0.0312,0.033,0.037,0.0384,0.0232,0.0232,0.0232,0,0,0.0334,0.0299,0.0281,0.0233,0.0216,0.0199,0.0198,0.0177,0.0183,0.0165,0.0174,0.0201,0.0221,0.0259,0.0276,0.0254,0.0354,0.032,0.0326,0.034,0.0378,0.0392,0.0405,0.0236,0.0236,0.0235,0,0,0.0304,0.0281,0.0241,0.0227,0.02,0.0194,0.0194,0.0176,0.0187,0.0193,0.0217,0.0263,0.0277,0.0316,0.0338,0.0405,0.0407,0.0443,0.0499,0.0538,0.055,0.0561,0.0564,0.0574,0.0446,0.0446,0.0446,0,0.0318,0.0254,0.023,0.0197,0.0195,0.0196,0.0183,0.0188,0.0179,0.0203,0.0205,0.0301,0.031,0.039,0.044,0.0427,0.0444,0.0443,0.0548,0.0559,0.0569,0.057,0.0581,0.0449,0.0449,0.0449,0.0448,0,0.0254,0.0223,0.02,0.0165,0.0166,0.0148,0.0163,0.0178,0.021,0.0233,0.0319,0.0351,0.0417,0.0456,0.047,0.0581,0.0567,0.0552,0.0508,0.0587,0.0583,0.0593,0.0454,0.0453,0.0452,0.0451,0,0,0.0244,0.0171,0.0167,0.0161,0.0153,0.0148,0.0174,0.0203,0.0247,0.0286,0.0366,0.045,0.0504,0.0538,0.0585,0.064,0.0725,0.0649,0.0649,0.0635,0.0804,0.073,0.0733,0.0738,0.0741,0.0743,0.0766,0,0.0212,0.014,0.0129,0.0118,0.0096,0.0132,0.0169,0.0211,0.0263,0.034,0.0422,0.0513,0.0525,0.0601,0.0655,0.0713,0.076,0.072,0.0746,0.0746,0.0657,0.0746,0.0752,0.0773,0.0775,0.0777,0.0778,0,0.0159,0.012,0.0082,0.0104,0.0108,0.0129,0.021,0.0247,0.0351,0.0407,0.0507,0.0573,0.0685,0.0694,0.0793,0.0774,0.0811,0.0839,0.0839,0.0764,0.0693,0.0686,0.0797,0.0795,0.0794,0.0793,0.0792,0,0.0139,0.0105,0.0077,0.0075,0.0095,0.0134,0.0184,0.0275,0.0332,0.0475,0.0542,0.0653,0.0747,0.0796,0.0857,0.0843,0.0957,0.0917,0.0873,0.0865,0.0896,0.0885,0.1001,0.1001,0.1001,0.1001,0.1001,0,0.0096,0.0081,0.0072,0.0054,0.0099,0.0141,0.0231,0.0291,0.041,0.0492,0.0596,0.068,0.0793,0.0861,0.0884,0.0907,0.096,0.0906,0.0884,0.0915,0.0906,0.0901,0.089,0.1001,0.1001,0.1001,0.1001,0,0.0062,0.0036,0.002,0.0048,0.0077,0.0124,0.0248,0.0312,0.0423,0.0537,0.0593,0.0729,0.0806,0.0871,0.0967,0.0939,0.0963,0.0964,0.0992,0.0966,0.0831,0.0823,0.0892,0.0889,0.0888,0.0886,0.0885,0,0.0022,-0.0002,0.0019,0.0036,0.0054,0.0137,0.0204,0.032,0.0388,0.0544,0.0594,0.0723,0.0799,0.0854,0.0924,0.0941,0.0943,0.0943,0.0903,0.0858,0.0829,0.0823,0.0816,0.0882,0.0882,0.0881,0.0881,0,-0.0023,-0.0011,-0.0008,0.0015,0.0069,0.0124,0.0225,0.0266,0.0404,0.0499,0.0591,0.0656,0.0753,0.0814,0.0865,0.0869,0.0929,0.0925,0.0927,0.0889,0.0848,0.0819,0.0815,0.0875,0.0876,0.0876,0.0877,0,-0.0028,-0.002,-0.0012,0.0019,0.0058,0.0086,0.0152,0.0242,0.0322,0.048,0.0508,0.0628,0.0741,0.0778,0.0804,0.0823,0.0798,0.0769,0.0779,0.0786,0.0746,0.0677,0.0655,0,0,0,0,0,-0.0035,-0.0022,-0.0008,0.0009,0.0032,0.0057,0.0148,0.0217,0.0342,0.0385,0.0444,0.0522,0.0597,0.0662,0.0658,0.074,0.0788,0.0731,0.0755,0.0842,0.0849,0.0813,0,0,0,0,0,0,-0.0037,-0.0016,-0.0013,-0.0018,-0.0013,0.0021,0.007,0.0155,0.0196,0.032,0.0368,0.0467,0.055,0.0582,0.0638,0.0656,0.0655,0.0804,0.0803,0.0838,0.0844,0.085,0.0815,0,0,0,0,0]},{"header":{"parameterUnit":"m.s-1","parameterCategory":2,"la1":30.2991,"la2":30.254,"lo1":-89.0895,"lo2":-89.0444,"dy":0.0017,"dx":0.0017,"nx":28,"ny":28,"refTime":"2023-09-25T21:00:00:Z","depth":"4","parameterNumber":3,"parameterNumberName":"V-component_of_CURRENTS"},"data":[0,0,0,0,0,0,0,0,0,0,0,0,0,0,0,0,0,0,0,0,0,0,0,0,0,0,0,0,0,0,0,0,0,0,0,0,0,0,0,0,0,0,0,0,0,0,0,0,0,0,0,0,0,0,0,0,0,0,0.0313,0.0313,0,0.0384,0.0385,0.0386,0.0406,0.0406,0.0405,0.0405,0.0471,0.0473,0.0475,0,0,0,0,0,0,0,0,0,0,0,0,0,0.0212,0.0214,0.0313,0.0314,0.0314,0.0384,0.0385,0.0386,0.0406,0.0406,0.0405,0.0405,0.047,0.0473,0.0475,0,0,0,0,0,0,0,0,0,0,0,0,0,0.0268,0.0214,0.0313,0.0332,0.0334,0.0384,0.0385,0.0386,0.0407,0.0406,0.0405,0.0404,0.0469,0.0473,0.0476,0.0511,0,0,0.0486,0.0487,0,0,0,0,0,0,0,0,0.0264,0.0271,0.0328,0.0331,0.0334,0.0385,0.0374,0.0427,0.0407,0.038,0.0405,0.0404,0.0441,0.0447,0.0464,0.0514,0.0517,0.0486,0.0488,0.049,0.0491,0,0,0,0,0,0,0,0.0261,0.0269,0.0342,0.0329,0.0332,0.0343,0.035,0.0384,0.0415,0.0383,0.0384,0.039,0.0443,0.046,0.0465,0.0518,0.0486,0.0489,0.0491,0.0492,0.056,0.0559,0,0,0,0,0,0,0.025,0.0265,0.034,0.0344,0.0295,0.0345,0.0353,0.037,0.0415,0.0421,0.0391,0.0391,0.0455,0.0461,0.0468,0.0507,0.049,0.0493,0.0495,0.056,0.056,0.0559,0,0,0,0,0,0,0.0248,0.0256,0.0337,0.0304,0.0315,0.0348,0.0366,0.0372,0.0393,0.0421,0.0427,0.0407,0.0455,0.0463,0.0501,0.051,0.0494,0.0497,0.056,0.056,0.056,0.0589,0,0,0,0,0,0,0.0245,0.0255,0.0269,0.0304,0.0317,0.0372,0.0367,0.0373,0.0398,0.0399,0.0437,0.0442,0.0455,0.0496,0.0504,0.0514,0.05,0.056,0.056,0.056,0.0589,0.059,0.0591,0,0,0,0,0,0.0241,0.0268,0.027,0.0279,0.0333,0.0373,0.0381,0.0401,0.0399,0.0417,0.0437,0.0441,0.0498,0.05,0.0509,0.052,0.0561,0.056,0.056,0.0588,0.059,0.0591,0,0,0,0,0,0,0.0234,0.0273,0.0276,0.0314,0.034,0.0376,0.04,0.0406,0.0438,0.044,0.0457,0.0465,0.0493,0.0502,0.0503,0.0533,0.0523,0.0524,0.0541,0.0543,0.0544,0.0549,0.0503,0,0,0,0,0,0.0237,0.0266,0.0298,0.0326,0.0344,0.0371,0.039,0.0402,0.0431,0.0444,0.0471,0.0487,0.0499,0.0518,0.0534,0.057,0.0545,0.0574,0.0575,0.0577,0.0584,0.053,0.0528,0.0558,0.0558,0.0558,0,0,0.0238,0.0266,0.028,0.0326,0.0352,0.0387,0.0382,0.0417,0.0443,0.0448,0.0499,0.0499,0.0507,0.0536,0.0549,0.0549,0.0556,0.0576,0.0578,0.0584,0.053,0.0527,0.0524,0.0558,0.0558,0.0558,0,0,0.0264,0.0285,0.0321,0.0348,0.0387,0.0405,0.0414,0.0455,0.0472,0.052,0.0509,0.0513,0.0566,0.0556,0.056,0.0578,0.056,0.0582,0.0607,0.0555,0.0552,0.0549,0.0522,0.0516,0.0589,0.0589,0.0589,0,0.0261,0.0316,0.0335,0.0379,0.0401,0.0413,0.045,0.0475,0.0521,0.0526,0.0541,0.0563,0.0571,0.0571,0.058,0.0582,0.0559,0.0605,0.0557,0.0554,0.055,0.0523,0.0516,0.0591,0.0591,0.059,0.059,0,0.0316,0.0359,0.0385,0.0439,0.0462,0.0499,0.0525,0.0546,0.0565,0.0579,0.0593,0.0602,0.0608,0.0605,0.0613,0.0588,0.0582,0.0559,0.0555,0.0549,0.052,0.0513,0.0593,0.0592,0.0592,0.0591,0,0,0.0313,0.0405,0.0416,0.0444,0.0497,0.0518,0.0554,0.058,0.0587,0.0625,0.0639,0.0649,0.0638,0.0639,0.0628,0.0597,0.0558,0.0583,0.0579,0.056,0.0462,0.0463,0.0454,0.0527,0.0526,0.0525,0.0455,0,0.035,0.0438,0.047,0.0533,0.0574,0.0583,0.0617,0.0631,0.0639,0.0658,0.0647,0.0667,0.0656,0.0663,0.0626,0.0569,0.0539,0.0581,0.0467,0.0464,0.0468,0.0446,0.0521,0.045,0.0448,0.0446,0.0446,0,0.0399,0.0448,0.0529,0.058,0.0597,0.0635,0.065,0.0683,0.069,0.0696,0.069,0.0686,0.0662,0.0657,0.0556,0.0584,0.0534,0.049,0.0485,0.0472,0.045,0.0453,0.0432,0.0433,0.0434,0.0435,0.0436,0,0.0397,0.0482,0.0546,0.057,0.0635,0.0659,0.069,0.0698,0.0716,0.0725,0.0727,0.0691,0.0691,0.0608,0.0539,0.0542,0.0426,0.0406,0.0359,0.0359,0.0367,0.0371,0.0332,0.0332,0.0332,0.0332,0.0333,0,0.0432,0.0478,0.0557,0.0594,0.0648,0.0684,0.0735,0.0738,0.0759,0.0769,0.0758,0.0749,0.0679,0.0614,0.0536,0.043,0.0414,0.0362,0.0335,0.0383,0.0389,0.0363,0.0367,0.033,0.033,0.0331,0.0331,0,0.0437,0.0499,0.0559,0.0631,0.0663,0.07,0.078,0.0799,0.0813,0.0822,0.0834,0.0791,0.0703,0.0621,0.0494,0.0431,0.0325,0.0296,0.0376,0.0355,0.0295,0.0302,0.022,0.0219,0.0219,0.0218,0.0218,0,0.0454,0.0496,0.0579,0.0616,0.0662,0.0738,0.0791,0.0833,0.0845,0.0834,0.0828,0.0775,0.0734,0.055,0.047,0.0321,0.0306,0.026,0.0262,0.0299,0.028,0.0288,0.0295,0.0217,0.0217,0.0217,0.0216,0,0.0464,0.0498,0.0543,0.0624,0.0688,0.0756,0.0828,0.0821,0.0852,0.0873,0.0806,0.0735,0.0646,0.0534,0.0441,0.0331,0.0287,0.0253,0.0254,0.0255,0.0294,0.0278,0.0286,0.0214,0.0215,0.0215,0.0215,0,0.0459,0.0482,0.055,0.0613,0.0685,0.0729,0.0775,0.0797,0.0819,0.079,0.0774,0.0689,0.067,0.0539,0.0439,0.0348,0.0316,0.0278,0.0277,0.0278,0.0322,0.0381,0.0301,0,0,0,0,0,0.0446,0.0482,0.0537,0.06,0.0663,0.0722,0.0775,0.081,0.0827,0.0771,0.0768,0.0685,0.0549,0.0507,0.0408,0.0417,0.0297,0.0299,0.0252,0.0203,0.0205,0.0248,0,0,0,0,0,0,0.0443,0.0497,0.0528,0.058,0.0621,0.0703,0.073,0.0748,0.0723,0.0723,0.0655,0.0666,0.054,0.0605,0.041,0.0389,0.0343,0.026,0.0258,0.0202,0.0204,0.0206,0.025,0,0,0,0,0]}]]